Terug naar catalogus

STARLINK-35995

ActiefCommunicatieVLEO
NORAD 66817·PAYLOAD·🇺🇸 United States

Gelanceerd Dec 1, 2025 vanaf Cape Canaveral Space Force Station

Loading…

Volgende Passages (komende 24 uur)

TLE

VersSource: CelesTrak SupGP

Epoch: Sep 15, 2026, 02:47 UTC

1 66817C 25278AC  26258.11645833  .00063342  00000+0  22937-2 0  2586
2 66817  43.0005 124.5062 0001465 276.9089 325.6561 15.27555197    15

Volg STARLINK-35995 in realtime met AllMySat

Download on the App Store